Regional Weather Roundup
Issued by NWS Goodland, KS

Home | Current Version | Previous Version | Graphics & Text | Print | Product List | Glossary On
Versions: 1 2 3 4 5 6 7 8 9 10 11 12 13 14 15 16 17 18 19 20 21 22 23 24 25 26 27 28 29 30 31 32 33 34 35 36 37 38 39 40 41 42 43 44 45 46 47 48 49 50
000
ASUS43 KGLD 210908
RWRGLD

GOODLAND FORECAST AREA HOURLY WEATHER ROUNDUP
NATIONAL WEATHER SERVICE GOODLAND KS
300 AM MDT SAT OCT 21 2017

...OFFICIAL OBSERVATIONS...

CITY           SKY/WX    TMP DP  RH WIND       PRES   REMARKS
GOODLAND KS    MOCLDY    53  38  56 W15       29.57R
HILL CITY KS   CLOUDY    69  59  70 S25G41    29.52F
IMPERIAL NEB   PTCLDY    55  41  59 NW15      29.50R
MCCOOK NEB     CLOUDY    65  54  67 SW20G31   29.46S
AKRON CO       CLOUDY    46  29  51 NW25G32   29.64R
BURLINGTON CO  CLOUDY    56  36  47 N20G30    29.63R
LIMON CO       CLOUDY    48  33  56 N22       29.64R
$$

...UNOFFICIAL OBSERVATIONS...

CITY           SKY/WX    TMP DP  RH WIND       PRES   REMARKS
COLBY KS       CLOUDY    61  52  72 S13G21    29.52S
LENORA KS        N/A     58  32  37 SW5         N/A
NORTON KS      CLEAR     66  54  63 S21G29    29.48F
SHARON SPRINGS   N/A     54  46  73 S12         N/A
TRENTON NEB      N/A     58  32  37 SW5         N/A
YUMA CO        FAIR      48  18  29 NW15G26   29.62R
$$




USA.gov is the U.S. government's official web portal to all federal, state and local government web resources and services.